Warroad, MN

10:29 PM CDT on June 26, 2017 (GMT -0500)
Warroad International-Carlson

Weather History for KRRT - November, 2013

Change the Weather History Date:

Thursday, November 14, 2013

  Actual Average Record
Temperature  
Mean Temperature 32 °F -  
Max Temperature 37 °F 33 °F 59 °F (1953)
Min Temperature 26 °F 18 °F -10 °F (1986)
Degree Days  
Heating Degree Days 34    
Moisture  
Dew Point 29 °F    
Average Humidity 86    
Maximum Humidity 93    
Minimum Humidity 80    
Precipitation  
Precipitation 0.01 in - - ()
Sea Level Pressure  
Sea Level Pressure 29.74 in    
Wind  
Wind Speed 4 mph (WSW)    
Max Wind Speed 9 mph    
Max Gust Speed -    
Visibility 8 miles    
Events Snow    
Averages and records for this station are not official NWS values.
T = Trace of Precipitation, MM = Missing Value Source: NWS Daily Summary

Daily Weather History Graph

Daily Weather History Graph

Search for Another Location

Airport or City:

Trip Planner

Search our weather history database for the weather conditions in past years. The results will help you decide how hot, cold, wet, or windy it might be!

Date:

Astronomy

Nov. 14, 2013 Rise Set
Actual Time 7:29 AM CST 4:41 PM CST
Civil Twilight 6:55 AM CST 5:16 PM CST
Nautical Twilight 6:16 AM CST 5:54 PM CST
Astronomical Twilight 5:39 AM CST 6:31 PM CST
Moon 3:15 PM CST (11/14) 4:11 AM CST (11/14)
Length of Visible Light 10h 21m
Length of Day
9h 11m
Waxing Gibbous, 92% of the Moon is Illuminated
Nov 14
Waxing Gibbous
Nov 17
Full
Nov 25
Last Quarter
Dec 2
New
Dec 9
First Quarter

Hourly Weather History & Observations

Time (CST) Temp. Windchill Dew Point Humidity Pressure Visibility Wind Dir Wind Speed Gust Speed Precip Events Conditions
12:14 AM 30.2 °F 26.7 °F 28.4 °F 93% 29.75 in 10.0 mi WNW 3.5 mph - N/A   Clear
12:34 AM 30.2 °F 24.3 °F 26.6 °F 86% 29.75 in 10.0 mi WNW 5.8 mph - N/A   Clear
12:54 AM 32.0 °F 25.6 °F 28.4 °F 87% 29.75 in 10.0 mi NW 6.9 mph - N/A   Clear
1:14 AM 32.0 °F 26.4 °F 28.4 °F 87% 29.76 in 10.0 mi NW 5.8 mph - N/A   Clear
1:34 AM 30.2 °F 26.7 °F 26.6 °F 86% 29.76 in 10.0 mi West 3.5 mph - N/A   Clear
1:54 AM 28.4 °F 23.3 °F 24.8 °F 86% 29.78 in 10.0 mi West 4.6 mph - N/A   Clear
2:14 AM 28.4 °F - 24.8 °F 86% 29.78 in 10.0 mi Calm Calm - N/A   Mostly Cloudy
2:34 AM 28.4 °F - 24.8 °F 86% 29.78 in 10.0 mi Calm Calm - N/A   Scattered Clouds
2:54 AM 26.6 °F - 23.0 °F 86% 29.78 in 10.0 mi Calm Calm - N/A   Clear
3:14 AM 26.6 °F - 21.2 °F 80% 29.78 in 7.0 mi Calm Calm - N/A   Scattered Clouds
3:34 AM 28.4 °F 24.6 °F 24.8 °F 86% 29.78 in 10.0 mi NW 3.5 mph - N/A   Mostly Cloudy
3:54 AM 26.6 °F 22.6 °F 24.8 °F 93% 29.78 in 10.0 mi West 3.5 mph - N/A   Scattered Clouds
4:14 AM 28.4 °F - 24.8 °F 86% 29.78 in 10.0 mi Calm Calm - N/A   Mostly Cloudy
4:34 AM 28.4 °F - 26.6 °F 93% 29.77 in 10.0 mi Calm Calm - N/A   Mostly Cloudy
4:54 AM 30.2 °F - 26.6 °F 86% 29.76 in 10.0 mi Calm Calm - N/A Snow Light Snow
5:14 AM 30.2 °F - 26.6 °F 86% 29.76 in 10.0 mi Calm Calm - N/A   Mostly Cloudy
5:34 AM 30.2 °F - 26.6 °F 86% 29.76 in 10.0 mi Calm Calm - N/A   Mostly Cloudy
5:54 AM 30.2 °F - 26.6 °F 86% 29.77 in 10.0 mi Calm Calm - N/A Snow Light Snow
6:14 AM 30.2 °F 26.7 °F 26.6 °F 86% 29.77 in 4.0 mi WSW 3.5 mph - N/A Snow Light Snow
6:34 AM 30.2 °F 26.7 °F 26.6 °F 86% 29.78 in 1.5 mi WSW 3.5 mph - N/A Snow Light Snow
6:54 AM 30.2 °F 25.4 °F 26.6 °F 86% 29.79 in 2.5 mi WSW 4.6 mph - 0.01 in Snow Light Snow
7:14 AM 30.2 °F 26.7 °F 26.6 °F 86% 29.79 in 5.0 mi WSW 3.5 mph - N/A Snow Light Snow
7:34 AM 30.2 °F 25.4 °F 26.6 °F 86% 29.79 in 4.0 mi West 4.6 mph - N/A Snow Light Snow
7:54 AM 30.2 °F 25.4 °F 26.6 °F 86% 29.79 in 5.0 mi SW 4.6 mph - N/A   Overcast
8:14 AM 30.2 °F 25.4 °F 26.6 °F 86% 29.79 in 4.0 mi WSW 4.6 mph - N/A Snow Light Snow
8:34 AM 30.2 °F 25.4 °F 26.6 °F 86% 29.80 in 5.0 mi WSW 4.6 mph - N/A   Overcast
8:54 AM 30.2 °F 25.4 °F 28.4 °F 93% 29.80 in 5.0 mi West 4.6 mph - N/A   Overcast
9:14 AM 32.0 °F 27.5 °F 28.4 °F 87% 29.79 in 4.0 mi West 4.6 mph - N/A   Overcast
9:34 AM 32.0 °F 26.4 °F 28.4 °F 87% 29.79 in 5.0 mi WSW 5.8 mph - N/A   Overcast
9:53 AM 32.0 °F 26.4 °F 28.4 °F 87% 29.79 in 5.0 mi West 5.8 mph - N/A   Overcast
10:14 AM 33.8 °F 28.6 °F 28.4 °F 81% 29.79 in 7.0 mi West 5.8 mph - N/A   Overcast
10:34 AM 33.8 °F 28.6 °F 28.4 °F 81% 29.79 in 7.0 mi West 5.8 mph - N/A   Overcast
10:54 AM 33.8 °F 30.8 °F 28.4 °F 81% 29.78 in 10.0 mi West 3.5 mph - N/A   Overcast
11:14 AM 33.8 °F 28.6 °F 30.2 °F 87% 29.78 in 7.0 mi WSW 5.8 mph - N/A   Overcast
11:34 AM 33.8 °F 28.6 °F 30.2 °F 87% 29.77 in 10.0 mi West 5.8 mph - N/A   Overcast
11:54 AM 33.8 °F 29.6 °F 30.2 °F 87% 29.76 in 10.0 mi WSW 4.6 mph - N/A   Overcast
12:14 PM 35.6 °F 30.7 °F 30.2 °F 81% 29.75 in 10.0 mi SW 5.8 mph - N/A   Overcast
12:34 PM 35.6 °F 30.7 °F 30.2 °F 81% 29.74 in 10.0 mi WSW 5.8 mph - N/A   Overcast
12:54 PM 35.6 °F 31.7 °F 30.2 °F 81% 29.74 in 10.0 mi WSW 4.6 mph - N/A   Overcast
1:14 PM 35.6 °F 30.7 °F 30.2 °F 81% 29.74 in 10.0 mi WSW 5.8 mph - N/A   Overcast
1:34 PM 35.6 °F 31.7 °F 30.2 °F 81% 29.74 in 10.0 mi WSW 4.6 mph - N/A   Overcast
1:54 PM 35.6 °F 31.7 °F 32.0 °F 87% 29.73 in 10.0 mi SW 4.6 mph - N/A   Overcast
2:14 PM 35.6 °F 31.7 °F 32.0 °F 87% 29.73 in 10.0 mi WSW 4.6 mph - N/A   Overcast
2:34 PM 35.6 °F 31.7 °F 32.0 °F 87% 29.72 in 10.0 mi WSW 4.6 mph - N/A   Overcast
2:54 PM 35.6 °F - 32.0 °F 87% 29.72 in 4.0 mi Calm Calm - N/A Snow Light Snow
3:14 PM 35.6 °F - 32.0 °F 87% 29.71 in 7.0 mi Calm Calm - N/A Snow Light Snow
3:34 PM 35.6 °F - 30.2 °F 81% 29.71 in 4.0 mi Calm Calm - N/A Snow Light Snow
3:54 PM 35.6 °F - 30.2 °F 81% 29.70 in 5.0 mi Calm Calm - N/A   Overcast
4:14 PM 35.6 °F 31.7 °F 30.2 °F 81% 29.70 in 10.0 mi SSW 4.6 mph - N/A   Overcast
4:33 PM 35.6 °F 30.7 °F 30.2 °F 81% 29.70 in 7.0 mi SSW 5.8 mph - N/A   Overcast
4:54 PM 35.6 °F 30.7 °F 30.2 °F 81% 29.69 in 7.0 mi SSW 5.8 mph - N/A   Overcast
5:14 PM 35.6 °F 30.7 °F 30.2 °F 81% 29.69 in 7.0 mi SSW 5.8 mph - N/A   Overcast
5:34 PM 33.8 °F 30.8 °F 30.2 °F 87% 29.68 in 10.0 mi South 3.5 mph - N/A   Overcast
5:54 PM 33.8 °F 29.6 °F 30.2 °F 87% 29.68 in 10.0 mi South 4.6 mph - N/A   Overcast
6:13 PM 33.8 °F 30.8 °F 30.2 °F 87% 29.68 in 7.0 mi South 3.5 mph - N/A   Overcast
6:34 PM 33.8 °F 29.6 °F 30.2 °F 87% 29.68 in 7.0 mi SSW 4.6 mph - N/A   Overcast
6:54 PM 35.6 °F 30.7 °F 30.2 °F 81% 29.68 in 7.0 mi SSW 5.8 mph - N/A   Overcast
7:14 PM 35.6 °F 29.2 °F 32.0 °F 87% 29.68 in 7.0 mi SW 8.1 mph - N/A   Overcast
7:34 PM 35.6 °F 28.6 °F 32.0 °F 87% 29.68 in 7.0 mi SW 9.2 mph - N/A   Overcast
7:54 PM 35.6 °F 29.9 °F 32.0 °F 87% 29.68 in 10.0 mi SW 6.9 mph - N/A   Overcast
8:14 PM 35.6 °F 29.9 °F 32.0 °F 87% 29.68 in 7.0 mi WSW 6.9 mph - N/A   Overcast
8:34 PM 35.6 °F 30.7 °F 32.0 °F 87% 29.67 in 7.0 mi WSW 5.8 mph - N/A   Overcast
8:54 PM 37.4 °F 31.4 °F 33.8 °F 87% 29.68 in 7.0 mi West 8.1 mph - N/A   Overcast
9:13 PM 37.4 °F 31.4 °F 33.8 °F 87% 29.68 in 7.0 mi West 8.1 mph - N/A   Overcast
9:34 PM 35.6 °F 29.9 °F 32.0 °F 87% 29.68 in 7.0 mi WSW 6.9 mph - N/A   Mostly Cloudy
9:54 PM 35.6 °F 29.2 °F 32.0 °F 87% 29.68 in 7.0 mi West 8.1 mph - N/A   Overcast
10:14 PM 35.6 °F 29.9 °F 32.0 °F 87% 29.68 in 10.0 mi WSW 6.9 mph - N/A   Overcast
10:34 PM 35.6 °F 29.9 °F 32.0 °F 87% 29.68 in 10.0 mi West 6.9 mph - N/A   Overcast
10:54 PM 35.6 °F 29.9 °F 32.0 °F 87% 29.68 in 10.0 mi West 6.9 mph - N/A   Overcast
11:14 PM 35.6 °F 29.2 °F 32.0 °F 87% 29.69 in 10.0 mi West 8.1 mph - N/A   Overcast
11:34 PM 35.6 °F 29.2 °F 30.2 °F 81% 29.69 in 10.0 mi West 8.1 mph - N/A   Overcast
11:54 PM 35.6 °F 29.9 °F 30.2 °F 81% 29.70 in 10.0 mi West 6.9 mph - N/A   Overcast